星链-5422 (STARLINK-5422 )

导读

STARLINK-5422是美国太空探索技术公司(SpaceX)星链互联网卫星项目中的一颗卫星,于北京时间2022年12月17日发射升空,属于星链计划Group 4系列卫星。星链项目旨在构建全球卫星互联网星座,该卫星承担着为全球提供低延迟、高速互联网接入服务的任务,助力拓展全球网络覆盖范围。

Basic Information
目录编号:
54804
目录名称:
STARLINK-5422
国际标识:
2022-175AY
轨道中心:
EARTH
卫星名称:
星链-5422
卫星全名:
星链-5422 (STARLINK-5422 )
卫星状态:
在轨 (已飞行1278 天)
发射日期:
2022-12-17 UTC
国别 :
美国 (US)
星等 :
--
Orbit Information
数据来源 国际轨道数据 AOE轨道数据
星历时间 2026-06-17T12:00:02+0800
6小时前
查看轨道信息
2026-06-11T01:00:00+0800
6天前
查看轨道信息
半长轴 6895.743km 6917.896km
偏心率 0.0000702 0.0000857
轨道倾角 53.159° 53.161°
近地点辐角 110.067° 72.484°
升交点赤经 301.812° 331.008°
平近点角 345.348° 122.647°
近地点 517.121km 539.166km
远地点 518.091km 540.352km
周期 94.980分钟 95.438分钟
每日圈数 15.161116 15.088352
Detailed Information
固有亮度:
5
最大亮度:
2.5
卫星平台:
Starlink v1.5
覆盖范围:
全球
运营商:
太空探索技术公司
运营商所在国:
美国
制造商(研发单位):
太空探索技术公司
制造商所在国:
美国
使用方式:
暂无
Satellite Introduction
星链(Starlink)计划是由太空探索技术公司(SpaceX)提出的一个巨型低轨卫星互联网星座项目,计划在2019年至2024年间在太空搭建由约1.2万颗卫星组成的“星链”网络,其中1584颗将部署在地球上空550千米处的近地轨道,并从2020年开始工作。该卫星仍在工作。
2D Orbit Map
3D Orbit Map
Orbit Altitude Analysis Chart
Orbit Inclination Analysis Chart
Orbit Comprehensive Analysis Chart
View Comprehensive Chart